Location: Bandys
(35.4750°N, 81.0830°W)
Time: 09:42:17
(UTC-04:00)

Daily predictions for brighter satellites

Satellite Brightness Start Highest point End
(mag) Time Altitude Azimuth Time Altitude Azimuth Time Altitude Azimuth
Cosmos 2369 4.0 20:18:57 10° S 20:24:16 44° ESE 20:29:37 10° NE
Okean 2 4.1 20:20:36 10° NNE 20:24:28 35° E 20:28:17 10° SSE
Cosmos 1633 2.9 20:21:27 10° SSW 20:25:06 71° W 20:28:44 10° N
NOSS 7 (D) 4.4 20:22:13 10° SSW 20:25:49 64° ESE 20:29:07 10° NE
Cosmos 1315 Rocket 3.6 20:22:37 10° SSW 20:26:32 59° W 20:30:33 10° N
Lacrosse 5 rocket 3.2 20:24:33 10° N 20:26:41 15° NE 20:28:47 10° ENE
OE (NEXTSAT) 4.4 20:23:13 10° WNW 20:26:48 86° NE 20:30:22 10° ESE
H-2A R/B 3.9 20:23:43 10° SE 20:26:56 26° ENE 20:30:13 10° NNE
Cosmos 1777 Rocket 4.1 20:22:23 10° N 20:27:35 59° ENE 20:32:46 10° SSE
Meteor 2-21 Rocket 4.5 20:25:24 10° S 20:31:34 74° E 20:37:45 10° N
Helios 1A 3.1 20:28:47 10° S 20:32:56 79° WSW 20:37:08 10° NNW
Meteor 1-23 Rocket 4.2 20:30:15 10° N 20:35:54 75° E 20:41:37 10° SSE
NOSS 3-4 (A) 4.0 20:30:43 10° NNW 20:37:40 57° NE 20:45:00 10° SE
NOSS 3-4 (C) 4.1 20:30:50 10° NNW 20:37:47 56° NE 20:45:06 10° SE
Cosmos 2208 Rocket 4.0 20:37:55 10° SSW 20:43:11 82° ESE 20:48:36 10° NNE
CZ-2D R/B 3.5 20:41:45 10° SSE 20:45:28 49° ENE 20:49:14 10° N
FengYun 1-2 T 4.3 20:40:34 10° SSE 20:46:13 89° ENE 20:51:52 10° NNW
Meteor 2-15 4.4 20:40:48 10° N 20:46:50 69° E 20:52:51 10° SSE
Meteor 2-14 Rocket 4.5 20:41:49 10° S 20:47:58 88° E 20:54:09 10° N
Spot 2 Rocket 4.3 20:43:52 10° S 20:48:51 55° W 20:53:51 10° NNW
OAO 2 Rocket 3.3 20:44:32 10° WSW 20:49:30 69° SSE 20:54:03 13° E
Cosmos 1025 Rocket 3.9 20:45:22 10° NNW 20:49:36 53° W 20:53:48 10° S
Cosmos 1461 3.5 20:45:53 10° NNW 20:49:39 37° NE 20:52:18 16° ESE
Hubble Space Telescope 2.5 20:47:37 10° WSW 20:50:53 22° SSW 20:53:43 12° SE
Meteor 2-15 Rocket 4.4 20:46:32 10° N 20:52:34 65° E 20:58:34 10° SSE
Cosmos 1892 Rocket 3.7 20:48:04 10° N 20:52:34 85° W 20:57:02 10° S
Cosmos 2123 Rocket 4.0 20:46:39 10° N 20:52:47 63° E 20:58:52 10° SSE
Cosmos 1626 Rocket 4.4 20:48:59 10° NNE 20:52:53 30° ENE 20:55:45 15° SE
Cosmos 1455 Rocket 3.0 20:49:48 10° S 20:54:07 87° E 20:58:29 10° N
FENGYUN 3A 3.6 20:48:54 10° SSE 20:54:13 72° ENE 20:59:33 10° N
ATLAS 3B CENTAUR R/B 2.3 20:54:58 10° SSW 20:55:15 10° S 20:55:33 10° S
Cosmos 1656 3.9 20:52:59 10° S 20:58:22 47° ESE 21:03:41 10° NE
Resurs 1-3 4.4 20:54:32 10° S 20:58:49 52° W 21:03:07 10° NNW
Envisat 4.3 20:57:13 16° ESE 20:59:29 22° ENE 21:03:19 10° NNE
Cosmos 2227 Rocket 2.3 20:54:05 10° NNW 20:59:41 57° ENE 21:04:23 14° SE
CZ-4B DEB 3.4 20:57:50 10° S 21:01:03 57° W 21:04:17 10° NNW
Cosmos 1602 Rocket 4.1 20:57:36 10° N 21:01:47 38° E 21:04:39 18° SE
Cosmos 1500 4.0 21:02:27 21° SE 21:04:02 28° E 21:07:17 10° NNE
Cosmos 1346 Rocket 2.8 21:01:22 10° N 21:05:20 87° W 21:09:20 10° S
ALOS 2.5 21:04:29 10° S 21:09:09 74° WSW 21:13:50 10° NNW
Iridium 4 Rocket 3.6 21:06:24 10° N 21:11:13 46° E 21:14:17 19° SSE
Cosmos 2082 3.6 21:08:19 10° NNW 21:13:56 71° ENE 21:18:05 19° SSE
Cosmos 2297 Rocket 2.4 21:09:35 10° NNW 21:15:09 55° ENE 21:18:31 23° SE
Cosmos 1153 Rocket 4.4 21:12:12 10° S 21:18:21 69° E 21:24:28 10° NNE
Resurs 01 Rocket 4.0 21:14:55 10° SSW 21:18:27 23° W 21:22:01 10° NW
Cosmos 220 Rocket 4.2 21:15:17 10° N 21:19:22 48° ENE 21:20:50 33° ESE
RESURS DK-1 4.1 21:18:27 10° NNE 21:21:12 17° ENE 21:21:23 17° ENE
CZ-3C R/B 3.9 20:26:03 10° W 21:22:04 43° SSW 21:28:19 20° SE
USA 186 2.5 21:21:26 13° S 21:24:12 51° W 21:27:14 10° NNW
BREEZE-M DEB (TANK) 4.4 21:06:12 10° SW 21:27:26 87° NW 21:32:37 10° ENE
DELTA 2 R/B (1) 3.7 21:22:37 10° WNW 21:28:10 67° NNE 21:31:02 29° E
Delta 2 Rocket 4.1 21:23:03 10° W 21:28:37 61° SSW 21:30:45 34° SE
Cosmos 1515 3.7 21:26:14 10° N 21:30:03 57° E 21:30:47 47° SE
ERS-1 Rocket 3.0 21:27:56 30° SE 21:30:18 58° ENE 21:35:14 10° N
Cosmos 1447 Rocket 4.4 21:26:30 10° N 21:32:50 76° E 21:37:43 18° SSE
Cosmos 1802 Rocket 4.4 21:29:35 25° SE 21:32:51 43° E 21:38:51 10° NNE
Cosmos 1743 3.6 21:40:01 35° NE 21:40:01 35° NE 21:42:44 10° NNE
OTV 4 1.1 21:38:44 10° WNW 21:41:08 52° W 21:41:08 52° W
Cosmos 1898 Rocket 3.6 21:36:51 10° N 21:42:05 58° ENE 21:43:26 44° ESE
Cosmos 1763 Rocket 4.2 21:43:23 33° ENE 21:43:23 33° ENE 21:46:59 10° NE
Lacrosse 5 2.8 21:42:42 10° NNW 21:47:15 32° NE 21:48:07 30° ENE
Tiangong 1 3.1 21:45:19 10° NW 21:47:48 21° N 21:47:55 21° N
Cosmos 2016 Rocket 4.2 21:47:11 40° SE 21:48:33 47° E 21:54:25 10° NNE
Cosmos 1066 Rocket 4.1 21:42:53 10° N 21:48:35 74° E 21:50:49 39° SSE
Cosmos 1697 Rocket 2.7 21:43:50 10° SSW 21:49:29 83° WNW 21:55:10 10° NNE
SPOT 5 3.4 21:50:57 42° ENE 21:51:05 42° ENE 21:55:42 10° N
Cosmos 1975 4.4 21:49:51 10° SSW 21:53:37 35° W 21:57:25 10° NNW
Cosmos 468 Rocket 4.2 21:51:15 10° SSW 21:56:20 69° WNW 22:01:27 10° NNE
Cosmos 2173 Rocket 3.9 21:56:18 19° S 22:01:06 86° E 22:07:29 10° N
Cosmos 841 Rocket 4.1 22:05:13 42° NE 22:05:13 42° NE 22:08:55 10° NNE
Cosmos 1814 Rocket 4.3 22:00:20 10° SSW 22:05:39 69° WNW 22:10:58 10° NNE
Lacrosse 5 rocket 1.9 22:02:37 10° NW 22:05:31 45° W 22:05:31 45° W
Cosmos 972 Rocket 4.4 22:04:22 10° NNW 22:10:27 84° ENE 22:12:04 54° SSE
ARGOS 4.0 22:12:12 34° NE 22:12:12 34° NE 22:16:15 10° N
Cosmos 1980 Rocket 2.1 22:06:23 10° SSW 22:12:03 90° W 22:17:47 10° NNE
Cosmos 2100 Rocket 4.2 22:07:11 11° SSW 22:13:11 69° W 22:19:24 10° N
Cosmos 1825 Rocket 3.9 22:08:53 10° N 22:12:29 58° N 22:12:29 58° N
Cosmos 2061 Rocket 4.2 22:12:27 19° SSW 22:17:11 71° W 22:23:27 10° N
H-2A R/B 2.8 22:23:38 48° NW 22:23:38 48° NW 22:26:46 10° NNW
Cosmos 1953 Rocket 4.5 22:18:29 10° N 22:21:30 42° N 22:21:30 42° N
Tsikada Rocket 4.4 22:17:52 10° N 22:23:28 48° ENE 22:23:28 48° ENE
Terra 4.1 22:28:04 13° NNE 22:28:04 13° NNE 22:28:57 10° NNE
Cosmos 1939 Rocket 4.3 22:26:46 34° W 22:26:48 34° W 22:30:37 10° NNW
MetOp-B 4.1 22:28:30 78° N 22:28:30 78° N 22:33:30 10° NNW
Milstar 3 Cent rocket 3.9 22:11:52 10° W 22:31:19 60° SSW 22:34:14 49° SSE
OAO 2 Rocket 3.9 22:29:12 10° W 22:33:01 52° W 22:33:01 52° W
Envisat 4.1 22:37:26 35° WSW 22:38:13 37° W 22:42:56 10° NNW
ASTEX 1 3.9 22:34:58 10° N 22:39:19 58° NW 22:39:19 58° NW
Meteor 1-21 4.5 22:37:10 10° NNW 22:42:53 67° W 22:42:53 67° W
Cosmos 2263 Rocket 4.1 22:39:26 10° N 22:41:51 18° NE 22:41:51 18° NE
Cosmos 2322 Rocket 4.0 22:48:05 20° NNE 22:48:05 20° NNE 22:49:43 10° NNE
H-2A R/B 3.7 22:48:51 23° NNE 22:48:51 23° NNE 22:50:55 10° N
Cosmos 1937 Rocket 4.3 22:41:49 10° NNW 22:46:32 46° W 22:46:32 46° W
Cosmos 1725 Rocket 4.0 22:47:52 76° NNW 22:47:52 76° NNW 22:53:38 10° N
Cosmos 2297 Rocket 4.4 22:55:07 10° WNW 22:58:39 17° W 23:00:21 15° WSW
Cosmos 2098 Rocket 4.5 22:58:17 55° WSW 22:59:17 61° W 23:05:23 10° N
Lacrosse 5 4.1 23:25:35 10° WNW 23:27:19 20° WNW 23:27:19 20° WNW
SL-16 R/B 4.1 23:42:47 25° N 23:42:47 25° N 23:45:21 10° N
USA 215 4.1 23:47:44 46° NNW 23:47:44 46° NNW 23:52:11 10° NW
